NOAA 16 DEB, 42421

Orbit data source: Space-Track

NOAA 16 DEB, 42421 is space debris in SSO originally from a launch on Thu, 21 Sep 2000 UTC launched from the Air Force Western Test Range (AFWTR). Debris objects in space refer to the collection of defunct objects orbiting the Earth. Examples of debris include non-operational satellites, rocket bodies, and fragments generated from explosions, collisions, or faulty payload assembly.

Loading next visibility...
Identifier
42421, 2000-055TR
Orbit
SSO
Country
Flag of USUS
Related business
Manufacturer
Unknown
Mission
Spacecraft
Bus & Motor
Unknown
Mass
Unknown
Launch date (UTC)
2000-09-21 (26 years ago)
Launch vehicle
Unknown
Launch site
Air Force Western Test Range (AFWTR)
Object type
Payload
Rocket body
Debris
Shape & HBR
Unknown shape, 0.1 m
Radar Cross Section
Medium (>0.1 m² and <1 m²)

Expand to show TLE details & history
Last TLE update: 2 days ago

TLE from 2 days ago
0 NOAA 16 DEB
1 42421U 00055TR  26236.16624321  .00002015  00000-0  11528-2 0  9994
2 42421  98.8890 212.8820 0076846 264.1937  95.0469 14.09195792499937
Epoch: 2026-08-24T03:59Z
TLE epoch observation values (Epoch: 2026-08-24T03:59:23.413Z)
Latitude
0.00004°
Longitude
-179.41741°
Altitude
870.338 km
Speed
7.415 km/s
True Right ascension
14h 11m 31s
True Declination
0° 00' 00"
Sunlit
Object was in daylight at epoch
Visualization orbit readout
Latitude
Unknown
Longitude
Unknown
Altitude
Unknown
Speed
Unknown
Apparent Right ascension
Unknown
Apparent Declination
Unknown
Sunlit
N/A
Visualization observer readout
Local Sidereal Time
01:15:30
Azimuth
Unknown
Elevation
Unknown
Doppler factor
Unknown
Orbital elements
Apogee altitude
914.923 km
Perigee altitude
803.69 km
Semi-major axis
7,237.443 km
Eccentricity
0.00768
Inclination
98.889°
RAAN
212.882°
Arg. of periapsis
264.1937°
True anomaly
95.9233°
Mean anomaly
95.0469°
Eccentric anomaly
95.48518°
Mean motion
3.52505 °/min
Orbital period
102.13 mins
BSTAR
0.0011528
Loading maneuver chart data...
Computing Atmospheric mass density...
Loading historical data...
Loading historical data...
Loading historical data...
Loading historical data...
Loading historical data...
Loading historical data...
Loading historical data...

Documentation

Showing up to 5 results
|